Location: Centerville
(32.8776°N, 96.6203°W)
Time: 00:10:14
(UTC+00:00)

Tsikada Rocket - Pass Details

Date: 17 June 2021
Orbit: 958 x 1009 km, 82.9° (Epoch: 27 July)

Event Time Altitude Azimuth Distance (km) Brightness Sun altitude
Exits shadow 06:27:58 60° 10° (N) 1,097 4.3 -33.7°
Drops below altitude 10° 06:32:56 10° 7° (N) 2,704 7.1 -33.7°
Sets 06:35:26 0° 7° (N) 3,650 8.1 -33.7°
